Current Weather Conditions: station 63114

sailwx.info

Wind from 170 at 26 knots

Air temperature 10.9° C
Visibility: greater than 0.0 NM
Dewpoint 10.5° C

Last reported at 2014-Oct-31 19:00 UTC.
Time now 2014-Nov-01 04:05 UTC

Location: N 61°18' E 001°42'.
View on Google Maps.

See reports from other nearby stations

  
Tides and Currents Weather Stations Pressure Air Temp Water Temp Dewpoint Dewpoint Depression Visibility Wind Speed Wind Dir Waves Ship Positions
date/time (UTC)wind fromknots sea level pressurealtimeterstation pressurevisibilityair tempwater tempwave heightnotes
2014-Oct-31 19:00 170 26 0.010.9
2014-Oct-31 18:00 170 25 0.010.9
2014-Oct-31 17:00 170 23 0.010.9
2014-Oct-31 16:00 160 23 0.010.8
2014-Oct-31 15:00 170 23 0.010.8
2014-Oct-31 14:00 170 23 0.010.8
2014-Oct-31 13:00 150 26 2.210.3
2014-Oct-31 12:00 130 27 1.1 9.8
2014-Oct-31 11:00 130 30 1.1 9.4
2014-Oct-31 10:00 130 29 0.5 9.3
2014-Oct-31 09:00 120 27 2.2 9.0
2014-Oct-31 08:00 120 25 2.2 8.9
2014-Oct-31 07:00 120 26 5.4 8.8
2014-Oct-31 06:00 120 23 2.2 9.0
2014-Oct-31 05:00 120 24 5.4 9.3
2014-Oct-31 04:00 120 22 10.8 9.3
2014-Oct-31 03:00 120 22 10.8 9.4
2014-Oct-31 02:00 120 24 10.8 9.3
2014-Oct-31 01:00 130 23 10.8 8.8
2014-Oct-31 00:00 130 22 10.8 9.2
2014-Oct-30 23:00 130 20 10.8 9.2
2014-Oct-30 22:00 120 19 10.8 9.0
2014-Oct-30 21:00 120 16 10.8 9.1
2014-Oct-30 20:00 120 16 27.0 8.9
2014-Oct-30 19:00 130 15 27.0 8.7
2014-Oct-30 18:00 140 14 27.0 8.7
2014-Oct-30 17:00 150 12 27.0 8.7
2014-Oct-30 16:00 150 15 10.8 8.7
2014-Oct-30 15:00 120 11 10.8 9.2
2014-Oct-30 14:00 130 12 10.8 8.8
2014-Oct-30 13:00 140 10 10.8 8.6
2014-Oct-30 12:00 140 9 10.8 8.5
2014-Oct-30 11:00 140 8 10.8 8.3
2014-Oct-30 10:00 120 6 27.0 8.0
2014-Oct-30 09:00 120 4 27.0 7.7
2014-Oct-30 08:00 120 2 27.0 7.2
2014-Oct-30 07:00 10.8 7.2
2014-Oct-30 06:00 300 3 27.0 7.2
2014-Oct-30 05:00 310 4 27.0 7.2
2014-Oct-30 04:00 310 5 27.0 7.0